Strona główna
METAR-TAF:

METAR-TAF

Lotnisko :

Port lotniczy Sveg

Sveg, Szwecja

Szerokość geograficzna: 62-02-52N, Długość geograficzna: 014-25-22E, wysokość: 359 m

Aktualna obserwacja pogody

Raport powstał 36 minut temu, godzina 20:20 UTC
Wiatr 3 kt od południowo-południowy wschód
Temperatura 10°C
Wilgotność 87%
Ciśnienie 1018 hPa
Widzialność 10 km lub więcej

METAR: ESND 302020Z AUTO 15003KT 9999 OVC057/// 10/08 Q1018

czas: 22:56 (20:56 UTC)


TAF: brakujący

Obserwacja i prognoza pogody dla ponad 4000 lotnisk (raport METAR i TAF).

Dostępne stacje oznaczono żółtymi i czerwonymi punktami na mapie.

Najedź kursorem aby zobaczyć nazwę stacji.

Kliknij aby zobaczyć obserwacje i prognozy pogody.

Aby zmienić mapę: kliknij na zielony przycisk z czarnym krzyżykiem, aby powiększyć; na zielony przycisk z myślnikiem, aby pomniejszyć; na zielone strzałki, aby przejść do map sąsiednich.


METAR-TAF: